KA9EES Weather Reports


time (UTC)temp
F
wind
direction
speed
knots
gust
knots
rain 1hr
in
rain 24hr
in
rain mn
in
humidity
%
barometer
mb
20260510175504 69 269 3.5 8.7 0.00 0.00 0.00 1018.7
20260510174004 68 6 1.7 8.7 0.00 0.00 0.00 1018.8
20260510172503 68 293 2.6 7.8 0.00 0.00 0.00 1019.0
20260510172004 68 319 0.9 7.8 0.00 0.00 0.00 1018.9
20260510171004 68 343 3.5 7.8 0.00 0.00 0.00 1019.1
20260510170003 68 291 1.7 6.1 0.00 0.00 0.00 1019.1
20260510165504 68 359 1.7 7.0 0.00 0.00 0.00 1019.1
20260510164004 67 344 2.6 6.1 0.00 0.00 0.00 1019.0
20260510163004 67 329 1.7 7.8 0.00 0.00 0.00 1018.8
20260510162503 67 5 3.5 7.8 0.00 0.00 0.00 1018.8
20260510162004 67 8 3.5 7.8 0.00 0.00 0.00 1018.7
20260510161004 67 330 2.6 7.0 0.00 0.00 0.00 1018.8
20260510160503 67 1 2.6 7.0 0.00 0.00 0.00 1019.0
20260510160003 67 7 1.7 6.1 0.00 0.00 0.00 1019.1
20260510155004 67 275 2.6 7.0 0.00 0.00 0.00 1018.7
20260510154503 67 316 1.7 7.0 0.00 0.00 0.00 1018.5
20260510154003 67 340 2.6 10.4 0.00 0.00 0.00 1018.3
20260510153503 66 34 4.3 10.4 0.00 0.00 0.00 1018.3
20260510153003 66 9 2.6 7.0 0.00 0.00 0.00 1018.2
20260510152004 65 341 1.7 7.8 0.00 0.00 0.00 1018.0
20260510151503 65 15 4.3 7.0 0.00 0.00 0.00 1018.0
20260510151004 65 353 3.5 7.8 0.00 0.00 0.00 1018.0
20260510150503 64 0 4.3 7.8 0.00 0.00 0.00 1018.2
20260510145504 64 0 1.7 8.7 0.00 0.00 0.00 1018.3
20260510145003 64 9 2.6 8.7 0.00 0.00 0.00 1018.3
20260510144503 64 305 1.7 6.1 0.00 0.00 0.00 1018.3
20260510144004 63 314 1.7 6.1 0.00 0.00 0.00 1018.3
20260510143503 63 6 1.7 6.1 0.00 0.00 0.00 1018.2
20260510143004 62 6 1.7 6.1 0.00 0.00 0.00 1018.3
20260510142503 62 355 3.5 6.1 0.00 0.00 0.00 1018.3
20260510142003 61 16 1.7 6.1 0.00 0.00 0.00 1018.3
20260510141504 61 329 2.6 6.1 0.00 0.00 0.00 1018.2
20260510141004 61 334 1.7 7.0 0.00 0.00 0.00 1018.1
20260510140503 60 343 4.3 7.8 0.00 0.00 0.00 1018.1
20260510140003 60 341 2.6 7.8 0.00 0.00 0.00 1018.1
20260510135504 59 338 2.6 5.2 0.00 0.00 0.00 1018.0
20260510135004 59 310 0.9 5.2 0.00 0.00 0.00 1017.8
20260510134004 59 323 1.7 5.2 0.00 0.00 0.00 1017.8
20260510133504 58 346 1.7 5.2 0.00 0.00 0.00 1017.7
20260510133004 58 331 0.9 6.1 0.00 0.00 0.00 1017.8
20260510132503 58 356 0.9 6.1 0.00 0.00 0.00 1017.6
20260510132004 57 346 2.6 6.1 0.00 0.00 0.00 1017.3
20260510131503 57 340 2.6 6.1 0.00 0.00 0.00 1017.5
20260510131003 56 330 0.9 6.1 0.00 0.00 0.00 1017.5
20260510130003 56 339 1.7 7.0 0.00 0.00 0.00 1017.2
20260510124503 55 329 2.6 6.1 0.00 0.00 0.00 1017.1
20260510124003 55 355 3.5 6.1 0.00 0.00 0.00 1017.1
20260510123504 54 352 2.6 6.1 0.00 0.00 0.00 1017.0
20260510122003 53 334 4.3 7.8 0.00 0.00 0.00 1016.0
20260510121504 53 344 3.5 7.8 0.00 0.00 0.00 1016.6
20260510121003 53 348 5.2 7.8 0.00 0.00 0.00 1016.5
20260510120503 52 333 1.7 7.0 0.00 0.00 0.00 1016.3
20260510120004 52 341 1.7 7.0 0.00 0.00 0.00 1016.2
20260510115504 52 340 2.6 7.0 0.00 0.00 0.00 1016.0
20260510114503 52 335 1.7 6.1 0.00 0.00 0.00 1015.9
20260510114004 52 342 2.6 6.1 0.00 0.00 0.00 1015.8
20260510113504 52 344 2.6 6.1 0.00 0.00 0.00 1015.7
20260510113003 52 338 1.7 7.0 0.00 0.00 0.00 1015.6
20260510112504 52 338 2.6 7.0 0.00 0.00 0.00 1015.5
20260510111503 52 345 1.7 4.3 0.00 0.00 0.00 1015.5
20260510111004 52 329 1.7 4.3 0.00 0.00 0.00 1015.2
20260510110504 52 331 1.7 4.3 0.00 0.00 0.00 1015.0
20260510110003 52 341 1.7 4.3 0.00 0.00 0.00 1014.8
20260510105503 52 337 1.7 4.3 0.00 0.00 0.00 1014.8
20260510105004 52 342 1.7 4.3 0.00 0.00 0.00 1014.7
20260510104503 52 340 0.9 5.2 0.00 0.00 0.00 1014.4
20260510104004 52 348 0.9 5.2 0.00 0.00 0.00 1014.4
20260510103504 52 334 1.7 5.2 0.00 0.00 0.00 1014.3
20260510103003 52 348 1.7 5.2 0.00 0.00 0.00 1014.0
20260510102504 52 344 1.7 5.2 0.00 0.00 0.00 1013.8
20260510101004 53 336 1.7 5.2 0.00 0.00 0.00 1013.5
20260510100503 53 350 2.6 5.2 0.00 0.00 0.00 1013.5
20260510100004 53 345 0.9 2.6 0.00 0.00 0.00 1013.6
20260510095003 54 344 0.9 2.6 0.00 0.00 0.00 1013.5
20260510094504 54 334 0.9 2.6 0.00 0.00 0.00 1013.5
20260510094004 54 341 0.9 2.6 0.00 0.00 0.00 1013.4
20260510093004 54 359 0.9 1.7 0.00 0.00 0.00 1013.0
20260510092503 55 337 0.9 2.6 0.00 0.00 0.00 1013.1
20260510092003 55 1 1.7 2.6 0.00 0.00 0.00 1013.0
20260510091003 56 357 1.7 4.3 0.00 0.00 0.00 1013.0
20260510090503 56 350 1.7 2.6 0.00 0.00 0.00 1012.9
20260510090004 56 333 0.9 4.3 0.00 0.00 0.00 1012.9
20260510085503 56 332 0.9 4.3 0.00 0.00 0.00 1012.9
20260510085004 57 339 1.7 2.6 0.00 0.00 0.00 1012.8
20260510083504 58 292 0.9 2.6 0.00 0.00 0.00 1012.9
20260510083004 58 355 1.7 2.6 0.00 0.00 0.00 1012.8
20260510082004 58 355 1.7 2.6 0.00 0.00 0.00 1012.8
20260510081503 58 358 1.7 4.3 0.00 0.00 0.00 1012.6
20260510081003 58 356 1.7 4.3 0.00 0.00 0.00 1012.6
20260510080504 58 344 1.7 4.3 0.00 0.00 0.00 1012.6
20260510080004 58 348 0.9 4.3 0.00 0.00 0.00 1012.6
20260510075503 58 350 1.7 4.3 0.00 0.00 0.00 1012.4
20260510075004 58 348 1.7 4.3 0.00 0.00 0.00 1012.3
20260510073004 59 17 1.7 5.2 0.00 0.00 0.00 1012.3
20260510072504 59 9 1.7 5.2 0.00 0.00 0.00 1012.4
20260510072003 59 2 1.7 5.2 0.00 0.00 0.00 1012.4
20260510071503 59 17 1.7 4.3 0.00 0.00 0.00 1012.3
20260510071004 59 0 1.7 4.3 0.00 0.00 0.00 1012.3
20260510070004 59 6 2.6 8.7 0.00 0.00 0.00 1012.3
20260510065504 59 21 2.6 8.7 0.00 0.00 0.00 1012.2
20260510065003 59 11 2.6 7.0 0.00 0.00 0.00 1012.1
20260510064504 59 3 2.6 6.1 0.00 0.00 0.00 1012.0
20260510064004 60 9 2.6 7.8 0.00 0.00 0.00 1011.9
20260510063503 60 3 3.5 7.8 0.00 0.00 0.00 1011.9
20260510063003 60 18 4.3 7.0 0.00 0.00 0.00 1011.8
20260510062503 60 3 4.3 7.0 0.00 0.00 0.00 1011.8
20260510062004 61 10 3.5 7.0 0.00 0.00 0.00 1011.7
20260510061503 61 354 2.6 7.0 0.00 0.00 0.00 1011.6
20260510061004 61 355 2.6 5.2 0.00 0.00 0.00 1011.6
20260510060504 62 337 1.7 4.3 0.00 0.00 0.00 1011.7
20260510060003 62 304 1.7 4.3 0.00 0.00 0.00 1011.7
20260510055504 62 321 0.9 4.3 0.00 0.00 0.00 1011.6
20260510055004 62 294 1.7 4.3 0.00 0.00 0.00 1011.7
20260510054504 62 304 1.7 6.1 0.00 0.00 0.00 1011.5
20260510054004 62 291 0.9 6.1 0.00 0.00 0.00 1011.5
20260510053503 63 299 1.7 7.0 0.00 0.00 0.00 1011.4
20260510052504 63 288 1.7 5.2 0.00 0.00 0.00 1011.5
20260510052004 63 254 1.7 5.2 0.00 0.00 0.00 1011.4
20260510051503 62 273 2.6 5.2 0.00 0.00 0.00 1011.1
20260510051004 62 266 2.6 5.2 0.00 0.00 0.00 1011.0
20260510050503 62 279 1.7 5.2 0.00 0.00 0.00 1010.9
20260510050003 62 262 2.6 6.1 0.00 0.00 0.00 1011.0
20260510045504 62 266 2.6 6.1 0.00 0.00 0.00 1010.8
20260510044504 62 263 4.3 6.1 0.00 0.00 0.00 1010.9
20260510044004 62 241 2.6 5.2 0.00 0.00 0.00 1010.9
20260510043503 62 263 2.6 5.2 0.00 0.00 0.00 1010.9
20260510043004 62 243 1.7 4.3 0.00 0.00 0.00 1010.6
20260510042503 62 248 1.7 2.6 0.00 0.00 0.00 1010.6
20260510042004 62 226 1.7 2.6 0.00 0.00 0.00 1010.6
20260510041503 62 246 1.7 2.6 0.00 0.00 0.00 1010.7
20260510041003 62 239 0.9 2.6 0.00 0.00 0.00 1010.5
20260510040504 62 247 1.7 2.6 0.00 0.00 0.00 1010.4
20260510040003 62 241 0.9 1.7 0.00 0.00 0.00 1010.2
20260510035503 62 213 0.9 1.7 0.00 0.00 0.00 1010.2
20260510035004 62 140 0.0 1.7 0.00 0.00 0.00 1010.1
20260510034503 62 206 1.7 1.7 0.00 0.00 0.00 1010.3
20260510034004 63 224 0.0 1.7 0.00 0.00 0.00 1010.3
20260510033003 63 214 1.7 1.7 0.00 0.00 0.00 1010.2
20260510032504 63 150 0.0 1.7 0.00 0.00 0.00 1010.1
20260510031503 63 198 0.0 2.6 0.00 0.00 0.00 1010.1
20260510031003 63 151 0.9 2.6 0.00 0.00 0.00 1010.1
20260510030504 63 179 0.9 2.6 0.00 0.00 0.00 1010.2
20260510030003 64 123 0.9 2.6 0.00 0.00 0.00 1010.1
20260510025503 64 165 0.9 1.7 0.00 0.00 0.00 1010.1
20260510025004 64 193 1.7 1.7 0.00 0.00 0.00 1010.0
20260510024503 65 306 0.0 0.0 0.00 0.00 0.00 1009.9
20260510024003 65 306 0.0 0.0 0.00 0.00 0.00 1010.0
20260510023003 65 306 0.0 1.7 0.00 0.00 0.00 1009.7
20260510022504 65 271 0.0 1.7 0.00 0.00 0.00 1009.7
20260510022003 65 271 0.9 1.7 0.00 0.00 0.00 1009.8
20260510021503 65 278 0.0 0.9 0.00 0.00 0.00 1009.6
20260510021003 65 253 0.0 0.9 0.00 0.00 0.00 1009.5
20260510020503 65 275 0.0 2.6 0.00 0.00 0.00 1009.5
20260510020004 65 302 0.9 2.6 0.00 0.00 0.00 1009.4
20260510015504 66 305 0.0 0.0 0.00 0.00 0.00 1009.3
20260510015004 66 305 0.0 0.0 0.00 0.00 0.00 1009.1
20260510013504 68 305 0.0 1.7 0.00 0.00 0.00 1008.8
20260510013004 68 305 0.0 1.7 0.00 0.00 0.00 1008.7
20260510012504 68 294 0.0 0.9 0.00 0.00 0.00 1008.6
20260510011503 68 308 0.9 2.6 0.00 0.00 0.00 1008.4
20260510011003 68 327 0.9 6.1 0.00 0.00 0.00 1008.3
20260510010504 68 319 0.9 6.1 0.00 0.00 0.00 1008.2
20260510005503 68 274 1.7 4.3 0.00 0.00 0.00 1007.9
20260510004503 69 242 1.7 2.6 0.00 0.00 0.00 1007.8
20260510004004 70 245 2.6 4.3 0.00 0.00 0.00 1007.7
20260510003004 71 242 2.6 4.3 0.00 0.00 0.00 1007.6
20260510002504 72 242 2.6 4.3 0.00 0.00 0.00 1007.6
20260510002003 72 241 1.7 4.3 0.00 0.00 0.00 1007.5
20260510001504 73 250 0.9 4.3 0.00 0.00 0.00 1007.5
20260510000004 73 248 1.7 7.0 0.00 0.00 0.00 1007.4
20260509235503 73 252 4.3 7.0 0.00 0.00 0.00 1007.3
20260509235004 74 250 4.3 7.0 0.00 0.00 0.00 1007.3
20260509234504 75 256 4.3 10.4 0.00 0.00 0.00 1007.3
20260509234003 75 255 4.3 10.4 0.00 0.00 0.00 1007.4
20260509233004 75 266 5.2 10.4 0.00 0.00 0.00 1007.3
20260509232503 75 249 2.6 11.3 0.00 0.00 0.00 1007.2
20260509232004 75 264 4.3 11.3 0.00 0.00 0.00 1007.3
20260509231503 76 263 5.2 12.2 0.00 0.00 0.00 1007.3
20260509230504 77 255 4.3 10.4 0.00 0.00 0.00 1007.2
20260509230004 77 248 5.2 13.0 0.00 0.00 0.00 1007.2
20260509225503 76 256 7.8 13.0 0.00 0.00 0.00 1007.2
20260509225004 76 264 4.3 11.3 0.00 0.00 0.00 1007.2
20260509224504 76 264 6.1 11.3 0.00 0.00 0.00 1007.2
20260509224004 76 259 5.2 11.3 0.00 0.00 0.00 1007.2
20260509223504 76 254 5.2 12.2 0.00 0.00 0.00 1007.2
20260509223004 77 252 7.0 12.2 0.00 0.00 0.00 1007.1
20260509222003 77 270 7.0 17.4 0.00 0.00 0.00 1007.1
20260509221504 77 260 6.1 17.4 0.00 0.00 0.00 1007.1
20260509221004 77 264 8.7 13.9 0.00 0.00 0.00 1007.2
20260509220504 77 271 7.8 13.9 0.00 0.00 0.00 1007.2
20260509220003 77 258 8.7 13.9 0.00 0.00 0.00 1007.2
20260509215003 77 246 6.1 12.2 0.00 0.00 0.00 1007.0
20260509214503 78 271 6.1 12.2 0.00 0.00 0.00 1007.1
20260509214004 78 262 7.8 13.9 0.00 0.00 0.00 1007.0
20260509213504 78 250 6.1 13.9 0.00 0.00 0.00 1007.0
20260509213003 77 265 8.7 13.9 0.00 0.00 0.00 1007.0
20260509212504 77 272 7.8 13.0 0.00 0.00 0.00 1007.0
20260509212003 77 255 5.2 13.0 0.00 0.00 0.00 1007.0
20260509211503 77 245 8.7 13.0 0.00 0.00 0.00 1007.0
20260509210504 78 241 7.8 14.8 0.00 0.00 0.00 1006.9
20260509210003 77 234 7.8 13.9 0.00 0.00 0.00 1006.9
20260509205004 76 243 7.8 13.0 0.00 0.00 0.00 1006.8
20260509204504 77 232 7.0 13.0 0.00 0.00 0.00 1006.8
20260509203504 77 236 7.8 12.2 0.00 0.00 0.00 1007.0
20260509202503 76 236 7.0 15.6 0.00 0.01 0.00 1007.1
20260509202003 76 253 7.8 15.6 0.00 0.01 0.00 1007.1
20260509201004 76 235 8.7 17.4 0.00 0.02 0.00 1007.1
20260509200504 76 237 8.7 17.4 0.00 0.02 0.00 1007.2
20260509195504 76 250 8.7 14.8 0.00 0.02 0.00 1007.2
20260509195003 76 246 8.7 13.9 0.00 0.02 0.00 1007.2
20260509194003 75 243 7.0 15.6 0.00 0.02 0.00 1007.2
20260509193004 75 251 8.7 15.6 0.00 0.02 0.00 1007.1
20260509192503 75 231 8.7 15.6 0.00 0.02 0.00 1007.1
20260509192004 75 228 8.7 15.6 0.00 0.02 0.00 1007.0
20260509191504 74 226 7.8 18.2 0.00 0.03 0.00 1006.9
20260509191003 74 233 7.8 18.2 0.00 0.03 0.00 1007.0
20260509190504 74 221 7.8 24.3 0.00 0.03 0.00 1007.1
20260509190004 74 212 12.2 24.3 0.00 0.03 0.00 1007.1
20260509185504 74 231 7.8 20.0 0.00 0.03 0.00 1007.1
20260509185003 73 227 11.3 20.0 0.00 0.04 0.00 1007.1
20260509184504 74 206 11.3 20.0 0.00 0.05 0.00 1007.2
20260509184004 73 236 10.4 18.2 0.00 0.05 0.00 1007.2
20260509183503 73 235 8.7 17.4 0.00 0.05 0.00 1007.3
20260509183003 73 218 10.4 18.2 0.00 0.05 0.00 1007.3
20260509182505 73 227 7.8 18.2 0.00 0.05 0.00 1007.3
20260509182004 72 219 10.4 18.2 0.00 0.05 0.00 1007.2
20260509181504 72 230 7.8 15.6 0.00 0.05 0.00 1007.2
20260509181003 71 234 8.7 17.4 0.00 0.05 0.00 1007.2
20260509180504 71 208 8.7 17.4 0.00 0.05 0.00 1007.2
20260509180003 71 219 9.6 17.4 0.00 0.05 0.00 1007.3